User: anonymous   Login
Location: Unspecified
(0.0000°N, 0.0000°E)
Time: 23:26:33
(UTC+02:00)
Language:

Cosmos 1892 Rocket - Orbit

View from above orbital plane
View from above orbital plane
View from above satellite
View from above satellite

Ground track
Ground track

The orbit data is extracted from the following two-line orbital elements,

1 18422U 87088B   17263.90975646 +.00000079 +00000-0 +67171-5 0  9996
2 18422 082.5089 087.1847 0020914 121.6448 350.7534 14.82939495594917
Epoch (UTC): 20 September 2017 21:50:02
Eccentricity: 0.0020914
inclination: 82.5089°
perigee height: 605 km
apogee height: 635 km
right ascension of ascending node: 87.1847°
argument of perigee: 121.6448°
revolutions per day: 14.82939495
mean anomaly at epoch: 350.7534°
orbit number at epoch: 59491

The dashed part of the orbit path shows where the satellite is in the earth's shadow,  

DLR